Content
SEND FEEDBACK

Daily
Averages
Monthly
Summary
United States of America

SHREVEPORT, LOUISIANA


Home > North America > United States > Louisiana
Elevation: 254 feet     Latitude: 32 28N     Longitude: 093 49W

WEATHER
 
SELECT A DAY
Number of Records: 206,038;   Date Range: 1/1/95 - 9/30/14
 
SHARE

PRINT THIS DATA

[ ← Previous Day ]
WEATHER ALMANAC - JANUARY 23, 2013
[ Next Day → ]
[ °C ]   °F
Weather ElementAverageHighLow
Temperature56.3 °F73 °F (1:56 pm)39 °F (6:56 am)
Dewpoint45.4 °F52 °F (10:56 am)37 °F (1:56 am)
Humidity69.8 %93 % (6:56 am)42 % (1:56 pm)
Barometer30.25 in30.32 in (8:56 am)30.19 in (4:56 pm)
Wind Speed5.6 mph15 mph (10:56 am)
Wind Gust21.9 mph (10:56 am)
Weather ElementAverage
Visibility10 mi
Wind DirectionSE (135.7 °)

Weather ElementTotal
Precipitation---
Heating Degree Days9 (Base 65)
Growing Degree Days6 (Base 50)
Averaged from 23 records on January 23, 2013
WEATHER CONDITIONS BREAKOUT
WIND DIRECTION BREAKOUT
WEATHER BY HOUR - JANUARY 23, 2013
[ °C ]   °F
Local TimeTemperatureDewpointHumidityBarometerVisibilityWind DirectionWind SpeedGust SpeedPrecipitationEventsConditions
1:56 AM43.0 °F37.0 °F80 %30.27 in10.0 miSE (140°)4.6 mphClear
2:56 AM42.1 °F37.0 °F82 %30.26 in10.0 miSSE (160°)4.6 mphClear
3:56 AM43.0 °F37.9 °F82 %30.26 in10.0 miCalmClear
4:56 AM43.0 °F39.9 °F89 %30.29 in10.0 miCalmOvercast
5:56 AM43.0 °F39.0 °F86 %30.30 in10.0 miCalmMostly Cloudy
6:56 AM39.0 °F37.0 °F93 %30.30 in10.0 miCalmScattered Clouds
7:56 AM43.0 °F39.9 °F89 %30.31 in10.0 miCalmMostly Cloudy
8:56 AM48.9 °F44.1 °F83 %30.32 in10.0 miCalmMostly Cloudy
9:56 AM55.9 °F48.0 °F75 %30.31 in10.0 miSSW (210°)8.1 mphPartly Cloudy
10:56 AM64.9 °F52.0 °F63 %30.32 in10.0 miWSW (240°)15.0 mph21.9 mphPartly Cloudy
11:56 AM68.0 °F52.0 °F56 %30.30 in10.0 miSSW (210°)10.4 mphMostly Cloudy
12:56 PM71.1 °F48.9 °F45 %30.25 in10.0 miSW (230°)15.0 mphPartly Cloudy
1:56 PM73.0 °F48.9 °F42 %30.22 in10.0 miSW (220°)8.1 mph16.1 mphClear
2:56 PM73.0 °F50.0 °F44 %30.21 in10.0 miSW (220°)11.5 mphPartly Cloudy
3:56 PM73.0 °F48.9 °F42 %30.20 in10.0 miSW (220°)11.5 mphPartly Cloudy
4:56 PM71.1 °F48.0 °F44 %30.19 in10.0 miSSW (200°)11.5 mphPartly Cloudy
5:56 PM64.9 °F48.0 °F54 %30.19 in10.0 miSouth (180°)8.1 mphPartly Cloudy
6:56 PM59.0 °F48.0 °F67 %30.20 in10.0 miSouth (180°)3.5 mphScattered Clouds
7:56 PM55.0 °F46.9 °F74 %30.20 in10.0 miSouth (170°)4.6 mphScattered Clouds
8:56 PM57.0 °F48.0 °F72 %30.20 in10.0 miSouth (180°)4.6 mphPartly Cloudy
9:56 PM54.0 °F46.9 °F77 %30.21 in10.0 miSouth (180°)4.6 mphClear
10:56 PM54.0 °F48.9 °F83 %30.22 in10.0 miSouth (180°)3.5 mphPartly Cloudy
11:56 PM55.0 °F50.0 °F83 %30.22 in10.0 miCalmScattered Clouds
Hourly data recorded from KSHV, located miles away from Shreveport, Louisiana







STORIES FROM OUR PARTNERS